Погода в Катыр-Юрте

Россия / Чеченская Республика     43°10′05″N   45°21′57″E
темп.,
°C
ветер,
м/с
пор.,
м/с
влажн.,
%
обл.,
%
осадки,
мм/ч
давл.,
гПа
погр.,
м
8 марта, пн
пн800:00−1вюв245217 0.0 1022137
03:00−2юз00549 0.0 102231
06:00−2сз125433 0.0 102227
09:00+2сз224329 0.0 1020496
12:00+4ссв434656 0.0 10181177
15:00+4ссв335565 0.0 10171108
18:00+2св1179100 0.1 1018413
21:00+1ююз1190100 0.3 1019135
9 марта, вт
вт900:00+1ююв1188100 0.0 101838
03:00+1ю008698 0.0 101821
06:000ююз008699 0.0 101821
09:00+3всв106496 0.0 1018482
12:00+6в324728 0.0 10161204
15:00+8в214019 0.0 10161563
18:00+6вюв124837 0.0 101722
21:00+5ссз125568 0.0 102070
10 марта, ср
ср1000:00+1ссз3495100 0.6 1021274
03:00+1з2494100 2.6 1023304
06:00+1з2386100 0.2 1024131
09:00+1с3587100 0.6 1024367
12:00+3ссз3457100 0.6 10221067
15:00+4с3352100 0.7 10221170
18:00+3ссв2362100 0.1 1022921
21:00+2всв2368100 0.3 1023838
11 марта, чт
чт1100:000всв358199 0.4 1022509
03:00−1всв466299 0.8 1022709
06:00−3всв4694100 1.2 1022424
09:00−3всв4692100 2.7 1022513
12:00−2всв6890100 1.2 1021696
15:00−3св6992100 2.6 1020658
18:00−5всв61094100 1.6 1020722
21:00−6всв5894100 3.1 1022577
12 марта, пт
пт1200:00−7св4695100 1.1 1021482
03:00−7св3695100 2.6 1021440
06:00−7св4795100 1.3 1023494
09:00−7св4694100 2.8 1024513
12:00−5св5693100 1.6 1025612
15:00−5всв5794100 2.9 1026618
18:00−7всв4796100 1.0 1029451
21:00−9всв2597100 1.5 1032188